Vorticity
10 10 12 12 9 6 6 5 5 3 8 7 8 4 8 8 9 12 7 2 8 2 10 5 5 8 4 3 4 12 10 9
16 16 15 15 15 16 15 13 9 7 8 6 6 1 12 10 8 8 15 9 4 8 8 8 4 10 5 2 3 11 9 11
9 10 11 13 13 13 15 16 16 14 12 11 10 10 8 11 8 8 8 8 5 5 6 7 6 10 4 3 5 12 7 10
7 7 7 8 8 8 9 9 10 11 10 10 10 14 11 7 18 7 9 11 7 7 8 8 4 3 6 2 6 12 6 6
5 4 5 6 8 7 5 7 8 8 10 9 6 6 9 15 12 10 7 7 6 5 8 10 3 0 2 3 6 10 7 6
6 8 11 15 13 12 11 10 2 6 12 8 7 5 8 9 13 14 12 11 8 4 12 8 6 2 1 3 6 9 5 6
11 11 12 10 10 12 10 12 14 9 10 10 13 11 12 8 11 11 11 9 13 5 7 13 -1 -1 0 2 5 10 5 5
6 10 9 15 23 22 26 22 22 27 26 20 15 15 19 11 13 10 13 12 7 9 13 13 9 3 7 3 3 9 5 5
5 6 16 27 13 27 14 21 14 20 14 18 16 15 17 14 9 9 11 7 20 3 9 16 6 1 9 1 3 8 5 5
9 21 17 15 13 14 9 26 27 21 29 37 11 16 26 14 19 9 4 4 19 7 2 13 10 -1 8 -1 4 7 4 7
17 22 3 18 38 18 26 17 17 13 10 24 20 11 20 -0 -4 3 16 14 -0 -2 8 13 3 9 5 1 3 7 5 6
20 14 20 6 18 22 4 10 6 33 2 22 22 15 6 -5 26 7 1 23 14 -0 13 8 10 9 5 1 4 5 6 6
13 13 23 25 31 23 17 8 6 12 40 10 40 22 3 19 15 30 -8 4 10 8 12 6 12 6 2 3 5 5 6 5
24 7 28 21 32 7 7 11 7 14 19 25 55 2 10 7 18 2 21 19 8 12 2 6 13 11 5 0 4 7 7 7
28 23 17 3 14 13 12 -14 17 12 -1 13 40 12 8 9 15 -2 8 8 7 5 16 11 7 13 -1 2 8 9 6 9
26 17 16 15 7 22 18 15 14 13 13 24 12 22 35 31 12 7 9 -6 19 -1 -13 34 13 9 7 4 6 10 5 11
11 3 7 4 6 11 11 25 -4 14 8 9 26 30 22 8 8 12 37 17 40 -9 -8 20 24 9 3 5 8 6 6 9
3 8 9 9 9 14 8 16 27 4 4 11 6 2 5 10 7 8 39 37 8 35 51 21 3 16 18 7 4 4 6 9
7 10 9 10 11 11 15 14 9 25 11 1 8 5 3 -3 10 4 29 -11 29 -21 8 26 7 22 8 2 6 3 7 12
Height
5703 5704 5706 5708 5710 5712 5713 5713 5715 5718 5719 5720 5723 5728 5732 5736 5741 5745 5745 5749 5751 5753 5755 5756 5758 5761 5761 5761 5760 5761 5761 5760
5693 5694 5695 5697 5699 5701 5703 5704 5704 5706 5707 5710 5712 5714 5721 5724 5728 5733 5735 5738 5741 5743 5746 5749 5750 5754 5754 5754 5754 5754 5755 5754
5682 5684 5685 5686 5686 5687 5688 5690 5692 5694 5695 5697 5699 5703 5707 5711 5715 5719 5723 5725 5729 5733 5738 5741 5743 5746 5747 5747 5748 5748 5749 5748
5672 5672 5673 5674 5675 5676 5675 5676 5678 5680 5682 5684 5685 5689 5693 5696 5702 5707 5713 5715 5720 5724 5729 5732 5734 5738 5740 5740 5740 5742 5741 5742
5660 5659 5660 5661 5662 5663 5663 5662 5663 5666 5668 5671 5673 5677 5682 5687 5692 5698 5701 5705 5710 5714 5719 5722 5725 5729 5732 5732 5733 5734 5735 5736
5645 5644 5644 5644 5645 5645 5646 5648 5648 5650 5653 5657 5660 5664 5670 5673 5679 5684 5689 5693 5698 5704 5708 5711 5715 5720 5723 5724 5726 5727 5728 5728
5632 5631 5630 5629 5627 5627 5627 5629 5629 5631 5636 5641 5646 5651 5657 5660 5666 5671 5678 5684 5686 5694 5697 5703 5706 5710 5714 5716 5718 5720 5721 5721
5620 5617 5615 5612 5609 5609 5610 5611 5612 5614 5618 5624 5630 5637 5643 5649 5654 5659 5666 5673 5676 5684 5688 5695 5696 5702 5706 5708 5710 5712 5713 5713
5605 5603 5600 5597 5594 5593 5595 5597 5598 5600 5604 5610 5615 5622 5630 5637 5642 5647 5655 5663 5668 5673 5677 5683 5688 5692 5697 5699 5702 5705 5705 5706
5592 5590 5588 5585 5582 5582 5584 5586 5587 5590 5592 5597 5603 5610 5618 5627 5632 5637 5644 5651 5656 5661 5667 5672 5677 5682 5687 5691 5695 5697 5698 5699
5583 5580 5578 5576 5572 5573 5574 5577 5579 5582 5585 5588 5594 5602 5608 5614 5619 5627 5633 5640 5645 5649 5658 5664 5668 5675 5678 5683 5687 5690 5691 5691
5574 5572 5569 5566 5565 5566 5568 5571 5574 5575 5578 5581 5584 5591 5597 5603 5610 5617 5624 5630 5635 5643 5649 5654 5661 5665 5669 5674 5678 5681 5682 5683
5568 5564 5561 5559 5560 5561 5563 5566 5568 5570 5573 5576 5575 5581 5588 5596 5603 5609 5616 5622 5627 5633 5640 5647 5652 5653 5659 5664 5669 5672 5674 5673
5560 5558 5556 5555 5556 5557 5560 5563 5564 5566 5568 5569 5571 5577 5582 5588 5593 5600 5607 5612 5619 5626 5632 5636 5641 5646 5650 5655 5660 5663 5665 5665
5554 5553 5553 5553 5554 5556 5558 5560 5561 5562 5565 5566 5569 5573 5577 5583 5588 5593 5598 5603 5609 5614 5620 5625 5633 5638 5641 5646 5650 5653 5656 5657
5549 5549 5550 5550 5552 5553 5554 5557 5559 5560 5561 5563 5566 5570 5575 5579 5584 5588 5593 5598 5601 5606 5611 5616 5623 5628 5632 5637 5641 5645 5647 5648
5546 5546 5547 5549 5549 5550 5551 5553 5555 5557 5559 5560 5564 5567 5570 5574 5578 5581 5584 5587 5593 5595 5602 5608 5613 5618 5623 5629 5634 5636 5637 5639
5542 5544 5546 5547 5547 5548 5548 5549 5550 5553 5556 5559 5561 5564 5568 5571 5573 5575 5574 5577 5584 5590 5591 5597 5604 5610 5615 5621 5625 5627 5629 5630
5541 5543 5544 5545 5546 5546 5546 5547 5548 5550 5552 5555 5558 5560 5564 5567 5570 5572 5576 5578 5580 5584 5588 5592 5597 5602 5607 5612 5615 5617 5620 5622